GW4137 Weather Reports


time (UTC)temp
C
wind
direction
speed
KPH
gust
KPH
rain 1hr
cm
rain 24hr
cm
rain mn
cm
humidity
%
barometer
mb
20260505234613 9 340 22.5 41.8 0.00 0.00 0.00 32 1018.1
20260505233055 8 352 29.0 37.0 0.00 0.00 0.00 33 1018.2
20260505231552 8 9 25.7 33.8 0.00 0.00 0.00 32 1018.2
20260505230056 9 329 27.4 41.8 0.00 0.00 0.00 29 1018.1
20260505224601 9 9 25.7 43.5 0.00 0.00 0.00 31 1018.1
20260505223103 9 5 25.7 40.2 0.00 0.00 0.00 29 1018.0
20260505221610 9 5 30.6 45.1 0.00 0.00 0.00 31 1018.1
20260505220138 9 352 22.5 46.7 0.00 0.00 0.00 32 1018.0
20260505214614 9 351 27.4 43.5 0.00 0.00 0.00 32 1018.1
20260505213053 9 5 25.7 41.8 0.00 0.00 0.00 32 1018.1
20260505211608 9 331 22.5 43.5 0.00 0.00 0.00 32 1018.2
20260505210054 9 332 27.4 43.5 0.00 0.00 0.00 32 1018.2
20260505204551 9 351 27.4 43.5 0.00 0.00 0.00 33 1018.4
20260505203054 9 352 30.6 49.9 0.00 0.00 0.00 33 1018.5
20260505201606 9 9 27.4 45.1 0.00 0.00 0.00 32 1018.4
20260505194602 9 349 20.9 45.1 0.00 0.00 0.00 35 1018.4
20260505193052 9 351 22.5 40.2 0.00 0.00 0.00 35 1018.4
20260505191554 8 321 20.9 40.2 0.00 0.00 0.00 37 1018.7
20260505190052 8 327 22.5 40.2 0.00 0.00 0.00 33 1018.5
20260505184550 8 344 22.5 37.0 0.00 0.00 0.00 38 1018.6
20260505183052 8 360 25.7 43.5 0.00 0.00 0.00 38 1018.7
20260505181555 7 331 19.3 35.4 0.00 0.00 0.00 42 1018.7
20260505180058 7 5 24.1 40.2 0.00 0.00 0.00 41 1018.7
20260505174553 7 350 24.1 32.2 0.00 0.00 0.00 45 1018.9
20260505173100 6 9 24.1 33.8 0.00 0.00 0.00 44 1018.9
20260505171556 6 342 24.1 32.2 0.00 0.00 0.00 45 1018.8
20260505170100 6 338 24.1 35.4 0.00 0.00 0.00 46 1018.9
20260505164548 5 342 22.5 33.8 0.00 0.00 0.00 50 1018.9
20260505163054 5 327 17.7 33.8 0.00 0.00 0.00 53 1019.0
20260505161554 5 344 19.3 33.8 0.00 0.00 0.00 53 1018.9
20260505153054 6 360 14.5 22.5 0.00 0.00 0.00 60 1019.2
20260505151552 4 314 16.1 27.4 0.00 0.00 0.00 60 1019.3
20260505124559 2 11 17.7 22.5 0.00 0.00 0.00 71 1018.6
20260505123054 1 11 12.9 17.7 0.00 0.00 0.00 73 1018.5
20260505121556 1 12 6.4 11.3 0.00 0.00 0.00 73 1018.6
20260505120053 1 12 8.0 16.1 0.00 0.00 0.00 71 1018.4
20260505114557 2 13 12.9 17.7 0.00 0.00 0.00 69 1018.4
20260505113057 2 355 12.9 22.5 0.00 0.00 0.00 67 1018.3
20260505111552 2 360 14.5 22.5 0.00 0.00 0.00 65 1018.1
20260505101551 3 355 12.9 22.5 0.00 0.00 0.00 59 1018.0
20260505100054 3 352 12.9 19.3 0.00 0.00 0.00 59 1017.8
20260505094550 4 9 14.5 20.9 0.00 0.00 0.00 57 1017.8
20260505093048 3 15 6.4 12.9 0.00 0.00 0.00 57 1017.6
20260505091557 3 0 0.0 0.0 0.00 0.00 0.00 57 1017.5
20260505090051 3 0 0.0 0.0 0.00 0.00 0.00 57 1017.5
20260505084551 4 0 0.0 0.0 0.00 0.00 0.00 57 1017.5
20260505083051 4 0 0.0 0.0 0.00 0.00 0.00 57 1017.6
20260505081553 4 0 0.0 9.7 0.00 0.00 0.00 56 1017.5
20260505080103 5 345 6.4 12.9 0.00 0.00 0.00 55 1017.6
20260505074556 5 350 8.0 17.7 0.00 0.00 0.00 54 1017.4
20260505073058 5 342 12.9 24.1 0.00 0.00 0.00 52 1017.4
20260505071550 5 16 17.7 24.1 0.00 0.00 0.00 51 1017.4
20260505070055 3 36 4.8 9.7 0.00 0.00 0.00 54 1017.5
20260505064555 2 46 3.2 8.0 0.00 0.00 0.00 55 1017.5
20260505063111 2 0 3.2 9.7 0.00 0.00 0.00 54 1017.5
20260505061555 2 0 0.0 4.8 0.00 0.00 0.00 54 1017.4
20260505060058 3 46 0.0 6.4 0.00 0.00 0.00 53 1017.2
20260505054608 3 46 6.4 9.7 0.00 0.00 0.00 51 1017.1
20260505053056 4 46 4.8 9.7 0.00 0.00 0.00 51 1017.1
20260505051555 3 46 4.8 8.0 0.00 0.00 0.00 52 1016.9
20260505041600 5 46 6.4 11.3 0.00 0.00 0.00 48 1017.1
20260505040058 5 47 8.0 16.1 0.00 0.00 0.00 46 1016.9
20260505034557 5 51 11.3 16.1 0.00 0.00 0.00 46 1016.7
20260505033105 6 50 14.5 30.6 0.00 0.00 0.00 44 1016.4
20260505031606 6 36 20.9 25.7 0.00 0.00 0.00 44 1016.2
20260505030113 6 42 20.9 27.4 0.00 0.00 0.00 42 1015.9
20260505024603 7 42 22.5 30.6 0.00 0.00 0.00 40 1015.5
20260505023054 7 43 20.9 37.0 0.00 0.00 0.00 38 1015.5
20260505021558 9 35 22.5 30.6 0.00 0.00 0.00 32 1015.3
20260505020054 10 5 20.9 35.4 0.00 0.00 0.00 28 1015.1
20260505014614 10 360 25.7 38.6 0.00 0.00 0.00 26 1014.9
20260505013053 11 5 24.1 35.4 0.00 0.00 0.00 24 1014.8
20260505011606 11 350 19.3 33.8 0.00 0.00 0.00 23 1014.5
20260505010054 11 332 20.9 45.1 0.00 0.00 0.00 23 1014.5
20260505004555 12 316 25.7 45.1 0.00 0.00 0.00 22 1014.5
20260505003055 12 360 27.4 40.2 0.00 0.00 0.00 22 1014.5
20260505001557 12 344 27.4 40.2 0.00 0.00 0.00 23 1014.5
20260505000107 12 321 32.2 45.1 0.00 0.00 0.00 23 1014.5